When you browse on this site, cookies collect data to enhance your experience and personalize the content and advertising you see.
Visit our Privacy Policy to learn more. By continuing to use the site, you agree to this use of cookies and data.
  • In Germany
  • List of Countries
  • For 7 days
  • Water Temperature
  • Satellite Maps
  • Weather Map
  • Weather Widgets
  • user-avatar
    Login

    Hourly Weather Marsa Alam

    Today, 22 January, Tuesday

    Time Temperature Precipitation Wind Pressure Humidity
    00:00 +16°C° 0 mm 0 mps 716 mmHg 52%
    01:00 +15°C° 0 mm 0 mps 716 mmHg 53%
    02:00 +15°C° 0 mm 0 mps 715 mmHg 53%
    03:00 +15°C° 0 mm 0 mps 715 mmHg 52%
    04:00 +14°C° 0 mm 0 mps 715 mmHg 51%
    05:00 +14°C° 0 mm 0 mps 715 mmHg 50%
    06:00 +16°C° 0 mm 0 mps 716 mmHg 44%
    07:00 +19°C° 0 mm 1 mps 716 mmHg 38%
    08:00 +21°C° 0 mm 1 mps 716 mmHg 29%
    09:00 +23°C° 0 mm 1 mps 717 mmHg 25%
    10:00 +24°C° 0 mm 1 mps 717 mmHg 20%
    11:00 +26°C° 0 mm 1 mps 717 mmHg 15%
    12:00 +26°C° 0 mm 2 mps 717 mmHg 15%
    13:00 +27°C° 0 mm 2 mps 716 mmHg 15%
    14:00 +27°C° 0 mm 2 mps 716 mmHg 15%
    15:00 +26°C° 0 mm 2 mps 716 mmHg 19%
    16:00 +25°C° 0 mm 2 mps 716 mmHg 23%
    17:00 +24°C° 0 mm 2 mps 715 mmHg 27%
    18:00 +23°C° 0 mm 1 mps 715 mmHg 33%
    19:00 +21°C° 0 mm 1 mps 715 mmHg 39%
    20:00 +20°C° 0 mm 1 mps 715 mmHg 45%
    21:00 +19°C° 0 mm 1 mps 715 mmHg 48%
    22:00 +16°C° 0 mm 0 mps 715 mmHg 52%
    23:00 +16°C° 0 mm 0 mps 715 mmHg 55%

    Tomorrow, 23 January, Wednesday

    Time Temperature Precipitation Wind Pressure Humidity
    00:00 +15°C° 0 mm 0 mps 715 mmHg 58%
    01:00 +15°C° 0 mm 0 mps 715 mmHg 60%
    02:00 +15°C° 0 mm 1 mps 715 mmHg 63%
    03:00 +15°C° 0 mm 1 mps 715 mmHg 67%
    04:00 +14°C° 0 mm 1 mps 714 mmHg 70%
    05:00 +14°C° 0 mm 1 mps 714 mmHg 74%
    06:00 +15°C° 0 mm 1 mps 715 mmHg 69%
    07:00 +16°C° 0 mm 1 mps 715 mmHg 64%
    08:00 +19°C° 0 mm 1 mps 716 mmHg 59%
    09:00 +20°C° 0 mm 1 mps 716 mmHg 52%
    10:00 +22°C° 0 mm 1 mps 716 mmHg 44%
    11:00 +23°C° 0 mm 2 mps 716 mmHg 36%
    12:00 +24°C° 0 mm 2 mps 716 mmHg 34%
    13:00 +25°C° 0 mm 2 mps 715 mmHg 31%
    14:00 +26°C° 0 mm 2 mps 715 mmHg 28%
    15:00 +25°C° 0 mm 2 mps 714 mmHg 31%
    16:00 +24°C° 0 mm 2 mps 714 mmHg 35%
    17:00 +23°C° 0 mm 2 mps 714 mmHg 38%
    18:00 +21°C° 0 mm 2 mps 714 mmHg 46%
    19:00 +20°C° 0 mm 2 mps 714 mmHg 53%
    20:00 +20°C° 0 mm 1 mps 714 mmHg 60%
    21:00 +19°C° 0 mm 1 mps 714 mmHg 63%
    22:00 +19°C° 0 mm 1 mps 714 mmHg 67%
    23:00 +18°C° 0 mm 1 mps 714 mmHg 70%

    Day after tomorrow, 24 January, Thursday

    Time Temperature Precipitation Wind Pressure Humidity
    00:00 +18°C° 0 mm 1 mps 714 mmHg 69%
    01:00 +16°C° 0 mm 1 mps 714 mmHg 68%
    02:00 +16°C° 0 mm 1 mps 714 mmHg 68%
    03:00 +16°C° 0 mm 1 mps 713 mmHg 67%
    04:00 +16°C° 0 mm 1 mps 713 mmHg 67%
    05:00 +16°C° 0 mm 1 mps 713 mmHg 67%
    06:00 +18°C° 0 mm 1 mps 713 mmHg 62%
    07:00 +18°C° 0 mm 2 mps 714 mmHg 56%
    08:00 +20°C° 0 mm 2 mps 714 mmHg 51%
    09:00 +22°C° 0 mm 3 mps 715 mmHg 41%
    10:00 +26°C° 0 mm 4 mps 715 mmHg 31%
    11:00 +28°C° 0 mm 4 mps 715 mmHg 22%
    12:00 +29°C° 0 mm 5 mps 714 mmHg 20%
    13:00 +30°C° 0 mm 5 mps 714 mmHg 19%
    14:00 +32°C° 0 mm 6 mps 713 mmHg 17%
    15:00 +30°C° 0 mm 5 mps 713 mmHg 20%
    16:00 +29°C° 0 mm 4 mps 713 mmHg 22%
    17:00 +28°C° 0 mm 3 mps 713 mmHg 24%
    18:00 +26°C° 0 mm 3 mps 713 mmHg 28%
    19:00 +25°C° 0 mm 2 mps 714 mmHg 32%
    20:00 +23°C° 0 mm 1 mps 714 mmHg 35%
    21:00 +22°C° 0 mm 1 mps 714 mmHg 33%
    22:00 +22°C° 0 mm 1 mps 714 mmHg 30%
    23:00 +21°C° 0 mm 1 mps 714 mmHg 28%

    25 January, Friday

    Time Temperature Precipitation Wind Pressure Humidity
    00:00 +21°C° 0 mm 1 mps 714 mmHg 25%
    01:00 +20°C° 0 mm 1 mps 714 mmHg 22%
    02:00 +17°C° 0 mm 0 mps 713 mmHg 19%
    03:00 +17°C° 0 mm 0 mps 713 mmHg 18%
    04:00 +17°C° 0 mm 0 mps 713 mmHg 17%
    05:00 +17°C° 0 mm 0 mps 713 mmHg 16%
    06:00 +19°C° 0 mm 0 mps 714 mmHg 17%
    07:00 +20°C° 0 mm 0 mps 714 mmHg 19%
    08:00 +22°C° 0 mm 0 mps 715 mmHg 20%
    09:00 +25°C° 0 mm 1 mps 715 mmHg 23%
    10:00 +27°C° 0 mm 1 mps 715 mmHg 26%
    11:00 +28°C° 0 mm 2 mps 715 mmHg 30%
    12:00 +29°C° 0 mm 2 mps 715 mmHg 31%
    13:00 +30°C° 0 mm 2 mps 714 mmHg 32%
    14:00 +30°C° 0 mm 3 mps 714 mmHg 33%
    15:00 +29°C° 0 mm 3 mps 714 mmHg 38%
    16:00 +28°C° 0 mm 2 mps 713 mmHg 44%
    17:00 +27°C° 0 mm 2 mps 713 mmHg 49%
    18:00 +26°C° 0 mm 2 mps 713 mmHg 59%
    19:00 +25°C° 0 mm 2 mps 714 mmHg 68%
    20:00 +24°C° 0 mm 1 mps 714 mmHg 78%
    21:00 +23°C° 0 mm 1 mps 714 mmHg 82%
    22:00 +23°C° 0 mm 1 mps 713 mmHg 87%
    23:00 +22°C° 0 mm 1 mps 713 mmHg 92%

    26 January, Saturday

    Time Temperature Precipitation Wind Pressure Humidity
    00:00 +22°C° 0 mm 1 mps 713 mmHg 91%
    01:00 +20°C° 0 mm 0 mps 712 mmHg 90%
    02:00 +19°C° 0 mm 0 mps 712 mmHg 90%
    03:00 +19°C° 0 mm 0 mps 712 mmHg 87%
    04:00 +19°C° 0 mm 0 mps 712 mmHg 85%
    05:00 +18°C° 0 mm 0 mps 711 mmHg 83%
    06:00 +19°C° 0 mm 0 mps 712 mmHg 76%
    07:00 +21°C° 0 mm 0 mps 712 mmHg 69%
    08:00 +22°C° 0 mm 0 mps 713 mmHg 62%
    09:00 +26°C° 0 mm 1 mps 713 mmHg 52%
    10:00 +28°C° 0 mm 1 mps 714 mmHg 42%
    11:00 +30°C° 0 mm 2 mps 714 mmHg 32%
    12:00 +31°C° 0 mm 3 mps 713 mmHg 29%
    13:00 +33°C° 0 mm 4 mps 713 mmHg 26%
    14:00 +34°C° 0 mm 5 mps 713 mmHg 24%
    15:00 +32°C° 0 mm 4 mps 712 mmHg 29%
    16:00 +29°C° 0 mm 3 mps 712 mmHg 35%
    17:00 +28°C° 0 mm 2 mps 712 mmHg 41%
    18:00 +27°C° 0 mm 2 mps 712 mmHg 51%
    19:00 +25°C° 0 mm 2 mps 713 mmHg 61%
    20:00 +24°C° 0 mm 2 mps 713 mmHg 71%
    21:00 +24°C° 0 mm 2 mps 713 mmHg 77%
    22:00 +24°C° 0 mm 2 mps 713 mmHg 82%
    23:00 +23°C° 0 mm 2 mps 713 mmHg 88%

    27 January, Sunday

    Time Temperature Precipitation Wind Pressure Humidity
    00:00 +23°C° 0 mm 2 mps 713 mmHg 89%
    01:00 +21°C° 0 mm 2 mps 713 mmHg 89%
    02:00 +21°C° 0 mm 2 mps 712 mmHg 90%
    03:00 +21°C° 0 mm 2 mps 713 mmHg 89%
    04:00 +20°C° 0 mm 2 mps 713 mmHg 89%
    05:00 +21°C° 0 mm 1 mps 713 mmHg 89%
    06:00 +20°C° 0 mm 2 mps 713 mmHg 83%
    07:00 +21°C° 0 mm 2 mps 714 mmHg 77%
    08:00 +21°C° 0 mm 2 mps 714 mmHg 71%
    09:00 +23°C° 0 mm 2 mps 715 mmHg 59%
    10:00 +25°C° 0 mm 3 mps 715 mmHg 48%
    11:00 +26°C° 0 mm 3 mps 715 mmHg 37%
    12:00 +27°C° 0 mm 3 mps 715 mmHg 33%
    13:00 +27°C° 0 mm 3 mps 714 mmHg 30%
    14:00 +28°C° 0 mm 3 mps 714 mmHg 26%
    15:00 +27°C° 0 mm 3 mps 714 mmHg 28%
    16:00 +26°C° 0 mm 3 mps 714 mmHg 29%
    17:00 +25°C° 0 mm 3 mps 714 mmHg 31%
    18:00 +24°C° 0 mm 2 mps 715 mmHg 35%
    19:00 +23°C° 0 mm 2 mps 715 mmHg 40%
    20:00 +21°C° 0 mm 1 mps 715 mmHg 45%
    21:00 +21°C° 0 mm 1 mps 715 mmHg 48%
    22:00 +20°C° 0 mm 1 mps 715 mmHg 51%
    23:00 +20°C° 0 mm 1 mps 715 mmHg 54%
    Show more